Regional Weather Roundup
Issued by NWS Raleigh/Durham, NC

Home | Current Version | Previous Version | Text Only | Print | Product List | Glossary On
Versions: 1 2 3 4 5 6 7 8 9 10 11 12 13 14 15 16 17 18 19 20 21 22 23 24 25 26 27 28 29 30 31 32 33 34 35 36 37 38 39 40 41 42 43 44 45 46 47 48 49 50
000
ASUS42 KRAH 040710
RWRRAH
NORTH CAROLINA WEATHER ROUNDUP
NATIONAL WEATHER SERVICE RALEIGH NC
200 AM EST SUN DEC 04 2016

NOTE: "FAIR" INDICATES FEW OR NO CLOUDS BELOW 12,000 FEET WITH NO
SIGNIFICANT WEATHER AND/OR OBSTRUCTIONS TO VISIBILITY.

NCZ001-053-055-056-065-067-040800-
WESTERN NORTH CAROLINA

CITY           SKY/WX    TMP DP  RH WIND       PRES   REMARKS
ASHEVILLE      LGT RAIN  41  37  86 S3        30.21S
JEFFERSON      CLOUDY    34  29  82 CALM      30.18R
MORGANTON      DRIZZLE   42  38  86 CALM      30.28S
HICKORY        CLOUDY    43  33  68 CALM      30.23S
RUTHERFORDTON  LGT RAIN  43  39  85 CALM      30.25R
MOUNT AIRY     CLOUDY    40  32  73 CALM      30.25R
BOONE          CLOUDY    36  28  73 CALM      30.19S
$$

NCZ021-022-025-041-071-084-088-040800-
CENTRAL NORTH CAROLINA

CITY           SKY/WX    TMP DP  RH WIND       PRES   REMARKS
CHARLOTTE      LGT RAIN  45  36  70 NE6       30.24R
GREENSBORO     CLOUDY    42  30  62 N5        30.24S
WINSTON-SALEM  CLOUDY    42  28  57 NE3       30.25S
RALEIGH-DURHAM CLOUDY    43  32  65 N3        30.25F
FORT BRAGG     CLOUDY    46  34  62 N3        30.24S
FAYETTEVILLE   CLOUDY    46  38  73 NE5       30.24S
BURLINGTON     CLOUDY    43  29  57 N5        30.24F
LAURINBURG     CLOUDY    46  41  82 N5        30.25S
$$

NCZ011-015-027-028-043-044-047-080-103-040800-
NORTHEASTERN NORTH CAROLINA

CITY           SKY/WX    TMP DP  RH WIND       PRES   REMARKS
ROCKY MT-WILSO CLOUDY    41  38  89 NE3       30.26F
GREENVILLE     CLOUDY    41  37  87 CALM      30.27F
WASHINGTON     CLOUDY    40  36  83 CALM      30.27S
ELIZABETH CITY CLOUDY    41  35  79 NW6       30.28S
MANTEO         CLOUDY    46  37  70 N7        30.27S
CAPE HATTERAS  CLOUDY    49  35  58 VRB6      30.25F
$$

NCZ078-087-090-091-093-098-101-040800-
SOUTHEASTERN NORTH CAROLINA

CITY           SKY/WX    TMP DP  RH WIND       PRES   REMARKS
LUMBERTON      CLOUDY    47  42  83 CALM      30.24S
GOLDSBORO      CLOUDY    45  34  65 NE3       30.23F
KINSTON          N/A     43  38  81 CALM      30.27S
KENANSVILLE    CLOUDY    43  39  87 CALM      30.26S
NEW BERN       CLOUDY    45  36  70 NE6       30.26F
CHERRY POINT   CLOUDY    47  37  68 NE6       30.26F
BEAUFORT       CLOUDY    46  38  73 VRB5      30.25F
JACKSONVILLE   CLOUDY    46  36  68 N6        30.25S
WILMINGTON     CLOUDY    46  38  73 NE5       30.24F
$$




USA.gov is the U.S. government's official web portal to all federal, state and local government web resources and services.